Location: Clanezzo
(45.7500°N, 9.6000°E)
Time: 04:26:33
(UTC+00:00)

USA 290 - Pass Details

Date: 12 May 2021
Orbit: 400 x 415 km, 73.6° (Epoch: 12 May)

Event Time Altitude Azimuth Distance (km) Brightness Sun altitude
Rises 19:14:12 0° 337° (NNW) 2,349 7.1 -5.5°
Reaches altitude 10° 19:16:16 10° 337° (NNW) 1,480 6.0 -5.8°
Maximum altitude 19:19:30 86° 253° (WSW) 413 2.2 -6.3°
Drops below altitude 10° 19:22:42 10° 160° (SSE) 1,459 4.5 -6.7°
Enters shadow 19:23:39 - 160° (SSE) 1,858 5.0 -6.9°
